Regional Weather Roundup
Issued by NWS

Home | Current Version | Previous Version | Text Only | Print | Product List | Glossary Off
Versions: 1 2 3 4 5 6 7 8 9 10 11 12 13 14 15 16 17 18 19 20 21 22 23 24 25 26 27 28 29 30 31 32 33 34 35 36 37 38 39 40 41 42 43 44 45 46 47 48 49 50

000
ASUS43 KBIS 300102
RWRND

NORTH DAKOTA REGIONAL WEATHER ROUNDUP
NATIONAL WEATHER SERVICE BISMARCK ND
800 PM CDT WED MAR 29 2017

NOTE: "FAIR" INDICATES FEW OR NO CLOUDS BELOW 12,000 FEET WITH NO
SIGNIFICANT WEATHER AND/OR OBSTRUCTIONS TO VISIBILITY.


NDZ001>003-009>011-017-300200-
NORTHWEST NORTH DAKOTA

CITY           SKY/WX    TMP DP  RH WIND       PRES   REMARKS
WILLISTON      FAIR      56  31  38 SW7       29.85F
MINOT          FAIR      51  45  79 SE6       29.86F
MINOT AFB      MOCLDY    48  46  93 SE7       29.85F
$$

NDZ018>021-031>035-040>046-300200-
SOUTHWEST NORTH DAKOTA

CITY           SKY/WX    TMP DP  RH WIND       PRES   REMARKS
BISMARCK       FAIR      53  38  56 SE9       29.92F
DICKINSON      FAIR      51  30  44 NW8       29.85F
GARRISON         N/A     51  37  58 S5        29.86F
HETTINGER ARPT CLOUDY    56  37  49 S10       29.91S
$$

NDZ004>008-012>016-024-026-027-054-300200-
NORTHEAST NORTH DAKOTA

CITY           SKY/WX    TMP DP  RH WIND       PRES   REMARKS
GRAND FORKS    PTCLDY    53  42  66 S13       29.99F
GRND FRKS AFB  CLOUDY    53  41  64 S16       29.99F
DEVILS LAKE    CLOUDY    48  39  71 S10       29.93F
$$

NDZ022-023-025-028>030-036>039-047>053-300200-
SOUTHEAST NORTH DAKOTA

CITY           SKY/WX    TMP DP  RH WIND       PRES   REMARKS
FARGO          CLEAR     54  36  50 S18G25    30.05S
JAMESTOWN      FAIR      51  35  54 S10       29.97S
$$




USA.gov is the U.S. government's official web portal to all federal, state and local government web resources and services.